Time,TemperatureF,DewpointF,PressureIn,WindDirection,WindDirectionDegrees,WindSpeedMPH,WindSpeedGustMPH,Humidity,HourlyPrecipIn,Conditions,Clouds,dailyrainin,SoftwareType,DateUTC
2014-11-28 00:02:00,69.1,24.9,30.03,South,180,1.8,5.1,19,0.00,,,0.00,WUHU216HW,2014-11-28 07:02:00,
2014-11-28 00:07:00,68.4,24.2,30.03,SSE,158,1.6,3.4,19,0.00,,,0.00,WUHU216HW,2014-11-28 07:07:00,
2014-11-28 00:12:00,67.3,23.3,30.03,SSE,158,0.7,3.4,19,0.00,,,0.00,WUHU216HW,2014-11-28 07:12:00,
2014-11-28 00:17:00,66.6,25.3,30.03,SE,135,1.6,2.5,21,0.00,,,0.00,WUHU216HW,2014-11-28 07:17:00,
2014-11-28 00:22:00,65.7,24.5,30.03,ENE,68,1.6,2.0,21,0.00,,,0.00,WUHU216HW,2014-11-28 07:22:00,
2014-11-28 00:27:00,65.2,24.0,30.03,South,180,2.5,2.5,21,0.00,,,0.00,WUHU216HW,2014-11-28 07:27:00,
2014-11-28 00:32:00,64.4,23.5,30.03,NNW,338,0.4,2.5,21,0.00,,,0.00,WUHU216HW,2014-11-28 07:32:00,
2014-11-28 00:37:00,63.7,23.9,30.03,SSW,203,0.0,1.8,22,0.00,,,0.00,WUHU216HW,2014-11-28 07:37:00,
2014-11-28 00:42:00,63.0,23.3,30.03,NE,45,0.0,1.1,22,0.00,,,0.00,WUHU216HW,2014-11-28 07:42:00,
2014-11-28 00:47:00,62.5,23.9,30.03,NNE,23,0.9,0.9,23,0.00,,,0.00,WUHU216HW,2014-11-28 07:47:00,
2014-11-28 00:52:00,61.7,22.2,30.03,NNW,338,0.0,1.8,22,0.00,,,0.00,WUHU216HW,2014-11-28 07:52:00,
2014-11-28 00:57:00,61.2,21.8,30.02,NW,315,0.0,1.8,22,0.00,,,0.00,WUHU216HW,2014-11-28 07:57:00,
2014-11-28 01:02:00,60.8,22.5,30.02,NNW,338,0.2,1.1,23,0.00,,,0.00,WUHU216HW,2014-11-28 08:02:00,
2014-11-28 01:07:00,60.3,22.1,30.02,SSE,158,0.2,1.3,23,0.00,,,0.00,WUHU216HW,2014-11-28 08:07:00,
2014-11-28 01:12:00,59.9,22.7,30.02,SSE,158,0.0,1.3,24,0.00,,,0.00,WUHU216HW,2014-11-28 08:12:00,
2014-11-28 01:17:00,59.4,22.2,30.02,NNW,338,0.4,1.8,24,0.00,,,0.00,WUHU216HW,2014-11-28 08:17:00,
2014-11-28 01:22:00,59.2,22.1,30.02,NNW,338,1.1,1.8,24,0.00,,,0.00,WUHU216HW,2014-11-28 08:22:00,
2014-11-28 01:27:00,59.0,22.9,30.02,East,90,1.6,1.6,25,0.00,,,0.00,WUHU216HW,2014-11-28 08:27:00,
2014-11-28 01:32:00,58.7,22.6,30.02,NE,45,0.2,1.6,25,0.00,,,0.00,WUHU216HW,2014-11-28 08:32:00,
2014-11-28 01:37:00,58.3,22.2,30.02,NNE,23,0.4,1.1,25,0.00,,,0.00,WUHU216HW,2014-11-28 08:37:00,
2014-11-28 01:42:00,58.0,22.9,30.02,NW,315,0.0,1.1,26,0.00,,,0.00,WUHU216HW,2014-11-28 08:42:00,
2014-11-28 01:47:00,57.6,23.6,30.02,NNW,338,0.0,0.4,27,0.00,,,0.00,WUHU216HW,2014-11-28 08:47:00,
2014-11-28 01:53:00,57.2,23.2,30.02,NE,45,0.9,0.9,27,0.00,,,0.00,WUHU216HW,2014-11-28 08:53:00,
2014-11-28 01:58:00,56.9,23.0,30.02,NNE,23,0.0,2.0,27,0.00,,,0.00,WUHU216HW,2014-11-28 08:58:00,
2014-11-28 02:03:00,56.7,23.8,30.02,East,90,0.2,2.0,28,0.00,,,0.00,WUHU216HW,2014-11-28 09:03:00,
2014-11-28 02:08:00,56.5,23.6,30.02,West,270,0.2,0.9,28,0.00,,,0.00,WUHU216HW,2014-11-28 09:08:00,
2014-11-28 02:13:00,56.2,23.2,30.02,West,270,1.6,1.6,28,0.00,,,0.00,WUHU216HW,2014-11-28 09:13:00,
2014-11-28 02:18:00,56.2,23.2,30.02,WSW,248,0.0,1.6,28,0.00,,,0.00,WUHU216HW,2014-11-28 09:18:00,
2014-11-28 02:23:00,55.8,23.0,30.02,West,270,1.3,1.6,28,0.00,,,0.00,WUHU216HW,2014-11-28 09:23:00,
2014-11-28 02:28:00,55.8,23.0,30.02,NW,315,0.2,1.3,28,0.00,,,0.00,WUHU216HW,2014-11-28 09:28:00,
2014-11-28 02:33:00,55.8,23.0,30.02,ENE,68,1.3,1.6,28,0.00,,,0.00,WUHU216HW,2014-11-28 09:33:00,
2014-11-28 02:38:00,55.6,23.7,30.02,West,270,1.1,1.6,29,0.00,,,0.00,WUHU216HW,2014-11-28 09:38:00,
2014-11-28 02:43:00,55.4,23.6,30.02,NNW,338,0.2,2.0,29,0.00,,,0.00,WUHU216HW,2014-11-28 09:43:00,
2014-11-28 02:48:00,55.3,23.4,30.02,NE,45,0.2,2.0,29,0.00,,,0.00,WUHU216HW,2014-11-28 09:48:00,
2014-11-28 02:53:00,55.1,23.2,30.02,NNW,338,0.2,1.8,29,0.00,,,0.00,WUHU216HW,2014-11-28 09:53:00,
2014-11-28 02:58:00,54.9,23.1,30.02,NNW,338,0.0,1.3,29,0.00,,,0.00,WUHU216HW,2014-11-28 09:58:00,
2014-11-28 03:03:00,54.5,22.9,30.02,NNE,23,0.0,1.8,29,0.00,,,0.00,WUHU216HW,2014-11-28 10:03:00,
2014-11-28 03:08:00,54.4,23.6,30.02,NNE,23,0.2,1.8,30,0.00,,,0.00,WUHU216HW,2014-11-28 10:08:00,
2014-11-28 03:13:00,54.2,23.5,30.02,North,0,0.4,0.4,30,0.00,,,0.00,WUHU216HW,2014-11-28 10:13:00,
2014-11-28 03:18:00,53.8,23.2,30.02,North,0,0.0,0.4,30,0.00,,,0.00,WUHU216HW,2014-11-28 10:18:00,
2014-11-28 03:23:00,53.6,23.8,30.02,NNW,338,0.7,0.7,31,0.00,,,0.00,WUHU216HW,2014-11-28 10:23:00,
2014-11-28 03:28:00,53.5,23.6,30.02,NE,45,1.8,1.8,31,0.00,,,0.00,WUHU216HW,2014-11-28 10:28:00,
2014-11-28 03:33:00,53.3,23.4,30.02,NNE,23,0.7,1.8,31,0.00,,,0.00,WUHU216HW,2014-11-28 10:33:00,
2014-11-28 03:38:00,53.1,23.2,30.02,NE,45,0.4,1.6,31,0.00,,,0.00,WUHU216HW,2014-11-28 10:38:00,
2014-11-28 03:43:00,52.9,23.8,30.02,NNW,338,0.4,1.6,32,0.00,,,0.00,WUHU216HW,2014-11-28 10:43:00,
2014-11-28 03:48:00,52.7,23.6,30.02,NW,315,0.2,0.7,32,0.00,,,0.00,WUHU216HW,2014-11-28 10:48:00,
2014-11-28 03:53:00,52.7,23.6,30.02,NW,315,0.0,0.7,32,0.00,,,0.00,WUHU216HW,2014-11-28 10:53:00,
2014-11-28 03:58:00,52.6,23.4,30.01,NNW,338,0.4,0.7,32,0.00,,,0.00,WUHU216HW,2014-11-28 10:58:00,
2014-11-28 04:03:00,52.6,23.4,30.02,NNE,23,0.0,0.4,32,0.00,,,0.00,WUHU216HW,2014-11-28 11:03:00,
2014-11-28 04:08:00,52.4,23.3,30.02,NE,45,0.4,1.8,32,0.00,,,0.00,WUHU216HW,2014-11-28 11:08:00,
2014-11-28 04:13:00,52.2,23.1,30.02,NNE,23,0.0,1.8,32,0.00,,,0.00,WUHU216HW,2014-11-28 11:13:00,
2014-11-28 04:18:00,52.2,23.8,30.02,NW,315,0.7,0.7,33,0.00,,,0.00,WUHU216HW,2014-11-28 11:18:00,
2014-11-28 04:23:00,52.2,23.8,30.01,NNW,338,0.2,0.7,33,0.00,,,0.00,WUHU216HW,2014-11-28 11:23:00,
2014-11-28 04:28:00,52.0,23.7,30.01,North,0,0.7,0.7,33,0.00,,,0.00,WUHU216HW,2014-11-28 11:28:00,
2014-11-28 04:33:00,51.8,23.5,30.01,North,0,1.1,1.1,33,0.00,,,0.00,WUHU216HW,2014-11-28 11:33:00,
2014-11-28 04:38:00,51.7,23.3,30.01,NNE,23,1.8,1.8,33,0.00,,,0.00,WUHU216HW,2014-11-28 11:38:00,
2014-11-28 04:43:00,51.5,23.1,30.01,North,0,0.9,1.8,33,0.00,,,0.00,WUHU216HW,2014-11-28 11:43:00,
2014-11-28 04:48:00,51.7,24.0,30.01,South,180,0.4,1.8,34,0.00,,,0.00,WUHU216HW,2014-11-28 11:48:00,
2014-11-28 04:53:00,51.7,24.0,30.01,NE,45,0.0,1.1,34,0.00,,,0.00,WUHU216HW,2014-11-28 11:53:00,
2014-11-28 04:58:00,51.5,23.9,30.01,SSW,203,0.4,1.1,34,0.00,,,0.00,WUHU216HW,2014-11-28 11:58:00,
2014-11-28 05:03:00,51.3,23.7,30.00,North,0,0.4,1.1,34,0.00,,,0.00,WUHU216HW,2014-11-28 12:03:00,
2014-11-28 05:08:00,51.1,23.5,30.00,NNE,23,0.0,1.1,34,0.00,,,0.00,WUHU216HW,2014-11-28 12:08:00,
2014-11-28 05:13:00,50.9,23.3,30.01,NNE,23,0.4,0.4,34,0.00,,,0.00,WUHU216HW,2014-11-28 12:13:00,
2014-11-28 05:18:00,50.8,23.9,30.01,NNE,23,0.0,0.4,35,0.00,,,0.00,WUHU216HW,2014-11-28 12:18:00,
2014-11-28 05:23:00,50.6,23.7,30.01,NNW,338,0.2,0.2,35,0.00,,,0.00,WUHU216HW,2014-11-28 12:23:00,
2014-11-28 05:28:00,50.4,24.2,30.01,NNW,338,0.2,0.9,36,0.00,,,0.00,WUHU216HW,2014-11-28 12:28:00,
2014-11-28 05:33:00,50.2,24.0,30.00,ENE,68,0.9,0.9,36,0.00,,,0.00,WUHU216HW,2014-11-28 12:33:00,
2014-11-28 05:38:00,50.2,24.0,30.01,NNE,23,0.0,1.3,36,0.00,,,0.00,WUHU216HW,2014-11-28 12:38:00,
2014-11-28 05:43:00,50.4,24.2,30.01,NNE,23,1.3,1.3,36,0.00,,,0.00,WUHU216HW,2014-11-28 12:43:00,
2014-11-28 05:48:00,50.6,24.4,30.01,NNW,338,0.2,1.3,36,0.00,,,0.00,WUHU216HW,2014-11-28 12:48:00,
2014-11-28 05:53:00,50.4,24.2,30.01,North,0,1.3,1.3,36,0.00,,,0.00,WUHU216HW,2014-11-28 12:53:00,
2014-11-28 05:58:00,50.6,24.4,30.01,NNE,23,0.9,1.8,36,0.00,,,0.00,WUHU216HW,2014-11-28 12:58:00,
2014-11-28 06:03:00,50.6,24.4,30.01,NNE,23,1.6,1.8,36,0.00,,,0.00,WUHU216HW,2014-11-28 13:03:00,
2014-11-28 06:08:00,50.6,24.4,30.01,NE,45,0.9,1.8,36,0.00,,,0.00,WUHU216HW,2014-11-28 13:08:00,
2014-11-28 06:13:00,50.4,24.2,30.01,North,0,0.2,2.0,36,0.00,,,0.00,WUHU216HW,2014-11-28 13:13:00,
2014-11-28 06:18:00,50.4,24.2,30.01,NE,45,1.1,2.2,36,0.00,,,0.00,WUHU216HW,2014-11-28 13:18:00,
2014-11-28 06:23:00,50.6,24.4,30.01,North,0,0.2,2.2,36,0.00,,,0.00,WUHU216HW,2014-11-28 13:23:00,
2014-11-28 06:28:00,50.6,24.4,30.01,NNE,23,0.0,2.0,36,0.00,,,0.00,WUHU216HW,2014-11-28 13:28:00,
2014-11-28 06:33:00,50.8,24.6,30.01,NNE,23,0.0,1.3,36,0.00,,,0.00,WUHU216HW,2014-11-28 13:33:00,
2014-11-28 06:38:00,50.6,24.4,30.01,NNE,23,0.9,0.9,36,0.00,,,0.00,WUHU216HW,2014-11-28 13:38:00,
2014-11-28 06:43:00,50.6,24.4,30.01,NNW,338,0.2,0.9,36,0.00,,,0.00,WUHU216HW,2014-11-28 13:43:00,
2014-11-28 06:48:00,50.4,24.2,30.01,WSW,248,0.4,0.7,36,0.00,,,0.00,WUHU216HW,2014-11-28 13:48:00,
2014-11-28 06:53:00,50.4,24.9,30.01,NNE,23,0.4,0.7,37,0.00,,,0.00,WUHU216HW,2014-11-28 13:53:00,
2014-11-28 06:58:00,50.0,24.6,30.01,NNE,23,0.0,0.4,37,0.00,,,0.00,WUHU216HW,2014-11-28 13:58:00,
2014-11-28 07:03:00,50.0,24.6,30.01,NNE,23,0.0,0.4,37,0.00,,,0.00,WUHU216HW,2014-11-28 14:03:00,
2014-11-28 07:08:00,50.0,24.6,30.01,North,0,0.4,0.4,37,0.00,,,0.00,WUHU216HW,2014-11-28 14:08:00,
2014-11-28 07:13:00,49.9,24.4,30.01,NNW,338,0.2,0.4,37,0.00,,,0.00,WUHU216HW,2014-11-28 14:13:00,
2014-11-28 07:18:00,49.5,24.1,30.01,NNW,338,0.4,0.4,37,0.00,,,0.00,WUHU216HW,2014-11-28 14:18:00,
2014-11-28 07:23:00,49.3,24.7,30.02,NW,315,0.0,0.7,38,0.00,,,0.00,WUHU216HW,2014-11-28 14:23:00,
2014-11-28 07:28:00,49.1,24.5,30.01,ENE,68,0.0,0.7,38,0.00,,,0.00,WUHU216HW,2014-11-28 14:28:00,
2014-11-28 07:33:00,49.1,24.5,30.01,ENE,68,0.2,0.2,38,0.00,,,0.00,WUHU216HW,2014-11-28 14:33:00,
2014-11-28 07:38:00,49.1,24.5,30.01,WNW,293,1.1,1.1,38,0.00,,,0.00,WUHU216HW,2014-11-28 14:38:00,
2014-11-28 07:43:00,49.3,24.7,30.01,WNW,293,0.0,1.1,38,0.00,,,0.00,WUHU216HW,2014-11-28 14:43:00,
2014-11-28 07:48:00,49.7,24.9,30.01,WNW,293,0.0,0.4,38,0.00,,,0.00,WUHU216HW,2014-11-28 14:48:00,
2014-11-28 07:53:00,49.9,25.1,30.01,WSW,248,0.9,0.9,38,0.00,,,0.00,WUHU216HW,2014-11-28 14:53:00,
2014-11-28 07:58:00,50.4,26.3,30.01,West,270,0.7,1.8,39,0.00,,,0.00,WUHU216HW,2014-11-28 14:58:00,
2014-11-28 08:03:00,50.9,26.1,30.01,West,270,0.4,1.8,38,0.00,,,0.00,WUHU216HW,2014-11-28 15:03:00,
2014-11-28 08:08:00,51.5,26.6,30.01,SW,225,0.0,1.3,38,0.00,,,0.00,WUHU216HW,2014-11-28 15:08:00,
2014-11-28 08:13:00,52.2,26.6,30.01,WSW,248,0.4,0.7,37,0.00,,,0.00,WUHU216HW,2014-11-28 15:13:00,
2014-11-28 08:18:00,52.7,27.0,30.01,NW,315,0.4,0.7,37,0.00,,,0.00,WUHU216HW,2014-11-28 15:18:00,
2014-11-28 08:23:00,53.5,27.0,30.01,West,270,0.4,1.1,36,0.00,,,0.00,WUHU216HW,2014-11-28 15:23:00,
2014-11-28 08:28:00,54.0,26.7,30.02,WNW,293,0.0,1.1,35,0.00,,,0.00,WUHU216HW,2014-11-28 15:28:00,
2014-11-28 08:33:00,54.7,26.6,30.02,WNW,293,0.0,0.9,34,0.00,,,0.00,WUHU216HW,2014-11-28 15:33:00,
2014-11-28 08:38:00,55.4,27.3,30.02,WNW,293,0.0,0.2,34,0.00,,,0.00,WUHU216HW,2014-11-28 15:38:00,
2014-11-28 08:43:00,56.0,27.1,30.02,WNW,293,0.0,0.4,33,0.00,,,0.00,WUHU216HW,2014-11-28 15:43:00,
2014-11-28 08:48:00,56.7,27.0,30.02,WNW,293,1.1,1.1,32,0.00,,,0.00,WUHU216HW,2014-11-28 15:48:00,
2014-11-28 08:53:00,57.4,27.6,30.02,NW,315,0.0,1.1,32,0.00,,,0.00,WUHU216HW,2014-11-28 15:53:00,
2014-11-28 08:58:00,58.1,27.6,30.02,SSW,203,0.4,0.4,31,0.00,,,0.00,WUHU216HW,2014-11-28 15:58:00,
2014-11-28 09:03:00,58.7,28.1,30.02,South,180,0.4,0.4,31,0.00,,,0.00,WUHU216HW,2014-11-28 16:03:00,
2014-11-28 09:08:00,59.4,28.7,30.02,South,180,0.0,0.4,31,0.00,,,0.00,WUHU216HW,2014-11-28 16:08:00,
2014-11-28 09:13:00,60.1,29.4,30.01,SSE,158,0.9,1.1,31,0.00,,,0.00,WUHU216HW,2014-11-28 16:13:00,
2014-11-28 09:18:00,60.8,29.2,30.01,SSW,203,0.9,1.1,30,0.00,,,0.00,WUHU216HW,2014-11-28 16:18:00,
2014-11-28 09:23:00,61.4,29.6,30.01,SSE,158,0.4,1.1,30,0.00,,,0.00,WUHU216HW,2014-11-28 16:23:00,
2014-11-28 09:28:00,62.1,29.4,30.01,SE,135,1.8,1.8,29,0.00,,,0.00,WUHU216HW,2014-11-28 16:28:00,
2014-11-28 09:33:00,62.6,29.8,30.01,SE,135,0.0,1.8,29,0.00,,,0.00,WUHU216HW,2014-11-28 16:33:00,
2014-11-28 09:38:00,63.2,30.3,30.01,SW,225,1.8,1.8,29,0.00,,,0.00,WUHU216HW,2014-11-28 16:38:00,
2014-11-28 09:43:00,63.7,29.8,30.01,WSW,248,0.4,1.8,28,0.00,,,0.00,WUHU216HW,2014-11-28 16:43:00,
2014-11-28 09:48:00,64.3,31.2,30.01,SSW,203,0.4,1.1,29,0.00,,,0.00,WUHU216HW,2014-11-28 16:48:00,
2014-11-28 09:53:00,64.8,30.8,30.01,WSW,248,0.4,1.1,28,0.00,,,0.00,WUHU216HW,2014-11-28 16:53:00,
2014-11-28 09:58:00,65.3,31.2,30.01,SSW,203,0.4,0.7,28,0.00,,,0.00,WUHU216HW,2014-11-28 16:58:00,
2014-11-28 10:03:00,66.1,31.9,30.01,SSW,203,0.9,1.1,28,0.00,,,0.00,WUHU216HW,2014-11-28 17:03:00,
2014-11-28 10:08:00,66.6,32.3,30.01,South,180,0.4,1.8,28,0.00,,,0.00,WUHU216HW,2014-11-28 17:08:00,
2014-11-28 10:13:00,67.1,31.8,30.01,SW,225,1.1,1.8,27,0.00,,,0.00,WUHU216HW,2014-11-28 17:13:00,
2014-11-28 10:18:00,67.7,31.2,30.01,WSW,248,0.4,1.3,26,0.00,,,0.00,WUHU216HW,2014-11-28 17:18:00,
2014-11-28 10:23:00,68.0,31.5,30.01,West,270,0.7,1.6,26,0.00,,,0.00,WUHU216HW,2014-11-28 17:23:00,
2014-11-28 10:28:00,68.4,31.8,30.00,SW,225,1.1,1.6,26,0.00,,,0.00,WUHU216HW,2014-11-28 17:28:00,
2014-11-28 10:33:00,68.8,32.1,30.00,West,270,0.0,1.6,26,0.00,,,0.00,WUHU216HW,2014-11-28 17:33:00,
2014-11-28 10:38:00,69.1,31.4,30.00,SW,225,1.1,1.6,25,0.00,,,0.00,WUHU216HW,2014-11-28 17:38:00,
2014-11-28 10:43:00,69.7,31.9,30.00,WNW,293,0.4,1.3,25,0.00,,,0.00,WUHU216HW,2014-11-28 17:43:00,
2014-11-28 10:48:00,70.0,32.2,30.00,SW,225,0.7,2.0,25,0.00,,,0.00,WUHU216HW,2014-11-28 17:48:00,
2014-11-28 10:53:00,70.2,31.3,29.99,WSW,248,2.5,2.5,24,0.00,,,0.00,WUHU216HW,2014-11-28 17:53:00,
2014-11-28 10:58:00,70.6,31.7,29.99,South,180,1.6,2.5,24,0.00,,,0.00,WUHU216HW,2014-11-28 17:58:00,
2014-11-28 11:03:00,70.9,32.0,29.99,West,270,2.0,3.6,24,0.00,,,0.00,WUHU216HW,2014-11-28 18:03:00,
2014-11-28 11:08:00,71.3,31.2,29.99,NNW,338,0.4,3.6,23,0.00,,,0.00,WUHU216HW,2014-11-28 18:08:00,
2014-11-28 11:13:00,71.6,31.5,29.99,West,270,2.0,2.0,23,0.00,,,0.00,WUHU216HW,2014-11-28 18:13:00,
2014-11-28 11:18:00,72.0,31.9,29.99,SSW,203,1.8,2.0,23,0.00,,,0.00,WUHU216HW,2014-11-28 18:18:00,
2014-11-28 11:23:00,72.5,32.3,29.98,SW,225,0.4,1.8,23,0.00,,,0.00,WUHU216HW,2014-11-28 18:23:00,
2014-11-28 11:28:00,72.7,31.4,29.98,West,270,0.9,1.6,22,0.00,,,0.00,WUHU216HW,2014-11-28 18:28:00,
2014-11-28 11:33:00,73.1,31.8,29.98,West,270,1.3,2.0,22,0.00,,,0.00,WUHU216HW,2014-11-28 18:33:00,
2014-11-28 11:38:00,73.4,31.1,29.97,South,180,0.2,2.0,21,0.00,,,0.00,WUHU216HW,2014-11-28 18:38:00,
2014-11-28 11:43:00,73.8,31.3,29.97,SSE,158,1.1,1.1,21,0.00,,,0.00,WUHU216HW,2014-11-28 18:43:00,
2014-11-28 11:48:00,74.2,31.7,29.97,ESE,113,0.0,1.8,21,0.00,,,0.00,WUHU216HW,2014-11-28 18:48:00,
2014-11-28 11:53:00,74.5,29.3,29.97,SSW,203,0.4,1.8,19,0.00,,,0.00,WUHU216HW,2014-11-28 18:53:00,
2014-11-28 11:58:00,74.9,29.5,29.96,WSW,248,1.1,1.8,19,0.00,,,0.00,WUHU216HW,2014-11-28 18:58:00,
2014-11-28 12:03:00,75.2,29.9,29.96,SSE,158,0.4,1.1,19,0.00,,,0.00,WUHU216HW,2014-11-28 19:03:00,
2014-11-28 12:08:00,75.2,29.9,29.96,WNW,293,2.5,2.5,19,0.00,,,0.00,WUHU216HW,2014-11-28 19:08:00,
2014-11-28 12:13:00,75.6,28.4,29.95,WNW,293,2.0,3.6,18,0.00,,,0.00,WUHU216HW,2014-11-28 19:13:00,
2014-11-28 12:18:00,76.0,28.8,29.95,WNW,293,2.5,3.6,18,0.00,,,0.00,WUHU216HW,2014-11-28 19:18:00,
2014-11-28 12:23:00,76.1,28.9,29.95,NW,315,1.1,2.5,18,0.00,,,0.00,WUHU216HW,2014-11-28 19:23:00,
2014-11-28 12:28:00,76.3,29.1,29.94,WSW,248,1.8,2.7,18,0.00,,,0.00,WUHU216HW,2014-11-28 19:28:00,
2014-11-28 12:33:00,76.5,29.2,29.94,West,270,0.7,4.3,18,0.00,,,0.00,WUHU216HW,2014-11-28 19:33:00,
2014-11-28 12:38:00,76.7,29.3,29.94,ENE,68,1.1,4.3,18,0.00,,,0.00,WUHU216HW,2014-11-28 19:38:00,
2014-11-28 12:43:00,76.9,27.8,29.94,WSW,248,2.0,2.0,17,0.00,,,0.00,WUHU216HW,2014-11-28 19:43:00,
2014-11-28 12:48:00,77.0,28.0,29.93,SE,135,1.1,2.9,17,0.00,,,0.00,WUHU216HW,2014-11-28 19:48:00,
2014-11-28 12:53:00,77.4,28.3,29.93,ESE,113,1.1,2.9,17,0.00,,,0.00,WUHU216HW,2014-11-28 19:53:00,
2014-11-28 12:59:00,77.6,28.4,29.93,SSE,158,1.3,2.5,17,0.00,,,0.00,WUHU216HW,2014-11-28 19:59:00,